Meteo pe oră la Al Kufah

Astăzi, 21 Ianuarie, Joi

Timp Temperatura Precipitaţii Vânt Presiune Umiditate
00:00 +12°C° 0 mm 8 m/s 762 mmHg 43%
01:00 +11°C° 0 mm 8 m/s 762 mmHg 46%
02:00 +10°C° 0 mm 7 m/s 762 mmHg 49%
03:00 +10°C° 0 mm 7 m/s 763 mmHg 51%
04:00 +9°C° 0 mm 7 m/s 764 mmHg 52%
05:00 +8°C° 0 mm 7 m/s 764 mmHg 54%
06:00 +6°C° 0 mm 7 m/s 765 mmHg 56%
07:00 +6°C° 0 mm 7 m/s 766 mmHg 52%
08:00 +8°C° 0 mm 7 m/s 766 mmHg 47%
09:00 +8°C° 0 mm 7 m/s 767 mmHg 43%
10:00 +9°C° 0 mm 7 m/s 768 mmHg 39%
11:00 +9°C° 0 mm 7 m/s 768 mmHg 34%
12:00 +10°C° 0 mm 7 m/s 769 mmHg 30%
13:00 +11°C° 0 mm 7 m/s 768 mmHg 27%
14:00 +11°C° 0 mm 6 m/s 768 mmHg 24%
15:00 +11°C° 0 mm 6 m/s 767 mmHg 21%
16:00 +10°C° 0 mm 5 m/s 768 mmHg 21%
17:00 +10°C° 0 mm 5 m/s 768 mmHg 22%
18:00 +10°C° 0 mm 4 m/s 768 mmHg 22%
19:00 +10°C° 0 mm 4 m/s 769 mmHg 24%
20:00 +8°C° 0 mm 4 m/s 769 mmHg 25%
21:00 +8°C° 0 mm 4 m/s 769 mmHg 27%
22:00 +7°C° 0 mm 4 m/s 769 mmHg 29%
23:00 +7°C° 0 mm 4 m/s 769 mmHg 31%

Mâine, 22 Ianuarie, Vineri

Timp Temperatura Precipitaţii Vânt Presiune Umiditate
00:00 +7°C° 0 mm 4 m/s 769 mmHg 33%
01:00 +6°C° 0 mm 4 m/s 769 mmHg 34%
02:00 +6°C° 0 mm 4 m/s 768 mmHg 36%
03:00 +6°C° 0 mm 4 m/s 768 mmHg 37%
04:00 +5°C° 0 mm 4 m/s 768 mmHg 39%
05:00 +5°C° 0 mm 5 m/s 768 mmHg 40%
06:00 +5°C° 0 mm 5 m/s 768 mmHg 42%
07:00 +5°C° 0 mm 5 m/s 768 mmHg 42%
08:00 +6°C° 0 mm 5 m/s 768 mmHg 41%
09:00 +7°C° 0 mm 6 m/s 768 mmHg 40%
10:00 +9°C° 0 mm 6 m/s 768 mmHg 39%
11:00 +10°C° 0 mm 6 m/s 768 mmHg 38%
12:00 +13°C° 0 mm 6 m/s 768 mmHg 37%
13:00 +13°C° 0 mm 6 m/s 767 mmHg 36%
14:00 +14°C° 0 mm 6 m/s 767 mmHg 35%
15:00 +14°C° 0 mm 6 m/s 766 mmHg 34%
16:00 +13°C° 0 mm 6 m/s 766 mmHg 33%
17:00 +13°C° 0 mm 5 m/s 766 mmHg 32%
18:00 +12°C° 0 mm 4 m/s 766 mmHg 31%
19:00 +11°C° 0 mm 4 m/s 766 mmHg 34%
20:00 +11°C° 0 mm 4 m/s 766 mmHg 37%
21:00 +10°C° 0 mm 4 m/s 766 mmHg 40%
22:00 +10°C° 0 mm 4 m/s 766 mmHg 40%
23:00 +8°C° 0 mm 4 m/s 766 mmHg 39%

Poimâine, 23 Ianuarie, Sâmbătă

Timp Temperatura Precipitaţii Vânt Presiune Umiditate
00:00 +8°C° 0 mm 4 m/s 766 mmHg 39%
01:00 +7°C° 0 mm 4 m/s 766 mmHg 41%
02:00 +7°C° 0 mm 4 m/s 766 mmHg 43%
03:00 +7°C° 0 mm 4 m/s 766 mmHg 45%
04:00 +6°C° 0 mm 4 m/s 766 mmHg 46%
05:00 +6°C° 0 mm 4 m/s 766 mmHg 47%
06:00 +6°C° 0 mm 4 m/s 766 mmHg 49%
07:00 +6°C° 0 mm 4 m/s 767 mmHg 48%
08:00 +7°C° 0 mm 4 m/s 767 mmHg 46%
09:00 +8°C° 0 mm 4 m/s 767 mmHg 45%
10:00 +11°C° 0 mm 4 m/s 767 mmHg 39%
11:00 +12°C° 0 mm 5 m/s 767 mmHg 34%
12:00 +14°C° 0 mm 5 m/s 766 mmHg 28%
13:00 +14°C° 0 mm 4 m/s 766 mmHg 26%
14:00 +15°C° 0 mm 4 m/s 765 mmHg 23%
15:00 +15°C° 0 mm 4 m/s 765 mmHg 21%
16:00 +14°C° 0 mm 4 m/s 765 mmHg 24%
17:00 +13°C° 0 mm 4 m/s 765 mmHg 26%
18:00 +12°C° 0 mm 4 m/s 765 mmHg 28%
19:00 +12°C° 0 mm 3 m/s 765 mmHg 30%
20:00 +11°C° 0 mm 3 m/s 765 mmHg 32%
21:00 +10°C° 0 mm 3 m/s 765 mmHg 34%
22:00 +10°C° 0 mm 3 m/s 765 mmHg 34%
23:00 +10°C° 0 mm 3 m/s 765 mmHg 35%

24 Ianuarie, Duminică

Timp Temperatura Precipitaţii Vânt Presiune Umiditate
00:00 +9°C° 0 mm 3 m/s 765 mmHg 35%
01:00 +9°C° 0 mm 3 m/s 765 mmHg 36%
02:00 +9°C° 0 mm 3 m/s 765 mmHg 37%
03:00 +8°C° 0 mm 3 m/s 765 mmHg 39%
04:00 +8°C° 0 mm 2 m/s 765 mmHg 39%
05:00 +8°C° 0 mm 2 m/s 765 mmHg 40%
06:00 +7°C° 0 mm 2 m/s 765 mmHg 40%
07:00 +8°C° 0 mm 2 m/s 765 mmHg 38%
08:00 +9°C° 0 mm 2 m/s 766 mmHg 35%
09:00 +11°C° 0 mm 1 m/s 766 mmHg 33%
10:00 +13°C° 0 mm 2 m/s 766 mmHg 30%
11:00 +14°C° 0 mm 2 m/s 766 mmHg 27%
12:00 +15°C° 0 mm 2 m/s 766 mmHg 24%
13:00 +16°C° 0 mm 2 m/s 765 mmHg 22%
14:00 +17°C° 0 mm 2 m/s 765 mmHg 21%
15:00 +17°C° 0 mm 3 m/s 764 mmHg 20%
16:00 +16°C° 0 mm 3 m/s 764 mmHg 22%
17:00 +16°C° 0 mm 3 m/s 764 mmHg 24%
18:00 +14°C° 0 mm 3 m/s 764 mmHg 27%
19:00 +14°C° 0 mm 2 m/s 764 mmHg 28%
20:00 +13°C° 0 mm 2 m/s 764 mmHg 30%
21:00 +13°C° 0 mm 2 m/s 764 mmHg 31%
22:00 +12°C° 0 mm 2 m/s 764 mmHg 31%
23:00 +12°C° 0 mm 2 m/s 764 mmHg 31%

25 Ianuarie, Luni

Timp Temperatura Precipitaţii Vânt Presiune Umiditate
00:00 +12°C° 0 mm 2 m/s 764 mmHg 31%
01:00 +12°C° 0 mm 2 m/s 764 mmHg 32%
02:00 +10°C° 0 mm 2 m/s 764 mmHg 32%
03:00 +10°C° 0 mm 2 m/s 764 mmHg 33%
04:00 +10°C° 0 mm 2 m/s 764 mmHg 34%
05:00 +10°C° 0 mm 2 m/s 764 mmHg 35%
06:00 +9°C° 0 mm 2 m/s 764 mmHg 36%
07:00 +10°C° 0 mm 2 m/s 764 mmHg 34%
08:00 +12°C° 0 mm 1 m/s 765 mmHg 31%
09:00 +13°C° 0 mm 1 m/s 765 mmHg 29%
10:00 +15°C° 0 mm 1 m/s 765 mmHg 26%
11:00 +16°C° 0 mm 1 m/s 765 mmHg 23%
12:00 +16°C° 0 mm 0 m/s 764 mmHg 20%
13:00 +19°C° 0 mm 1 m/s 764 mmHg 19%
14:00 +20°C° 0 mm 1 m/s 764 mmHg 18%
15:00 +21°C° 0 mm 1 m/s 763 mmHg 17%
16:00 +20°C° 0 mm 1 m/s 763 mmHg 18%
17:00 +18°C° 0 mm 2 m/s 763 mmHg 20%
18:00 +17°C° 0 mm 2 m/s 763 mmHg 22%
19:00 +16°C° 0 mm 2 m/s 763 mmHg 23%
20:00 +15°C° 0 mm 2 m/s 764 mmHg 25%
21:00 +15°C° 0 mm 2 m/s 764 mmHg 27%
22:00 +14°C° 0 mm 2 m/s 764 mmHg 27%
23:00 +14°C° 0 mm 2 m/s 764 mmHg 28%

26 Ianuarie, Marţi

Timp Temperatura Precipitaţii Vânt Presiune Umiditate
00:00 +14°C° 0 mm 2 m/s 764 mmHg 29%
01:00 +13°C° 0 mm 2 m/s 764 mmHg 29%
02:00 +13°C° 0 mm 2 m/s 764 mmHg 30%
03:00 +12°C° 0 mm 3 m/s 764 mmHg 30%
04:00 +12°C° 0 mm 2 m/s 764 mmHg 31%
05:00 +12°C° 0 mm 2 m/s 764 mmHg 31%
06:00 +10°C° 0 mm 2 m/s 764 mmHg 32%
07:00 +13°C° 0 mm 2 m/s 764 mmHg 29%
08:00 +14°C° 0 mm 1 m/s 764 mmHg 27%
09:00 +15°C° 0 mm 1 m/s 765 mmHg 24%
10:00 +16°C° 0 mm 1 m/s 764 mmHg 22%
11:00 +18°C° 0 mm 1 m/s 764 mmHg 20%
12:00 +20°C° 0 mm 1 m/s 764 mmHg 18%
13:00 +20°C° 0 mm 1 m/s 763 mmHg 17%
14:00 +21°C° 0 mm 1 m/s 763 mmHg 17%
15:00 +21°C° 0 mm 2 m/s 762 mmHg 16%
16:00 +20°C° 0 mm 2 m/s 762 mmHg 18%
17:00 +18°C° 0 mm 2 m/s 762 mmHg 19%
18:00 +17°C° 0 mm 2 m/s 762 mmHg 21%
19:00 +17°C° 0 mm 2 m/s 762 mmHg 22%
20:00 +16°C° 0 mm 2 m/s 763 mmHg 24%
21:00 +15°C° 0 mm 2 m/s 763 mmHg 25%
22:00 +15°C° 0 mm 2 m/s 763 mmHg 25%
23:00 +14°C° 0 mm 2 m/s 762 mmHg 26%
Arată mai mult

Formular de consimțământ

Meteoprog și furnizorii noștri de servicii pot stoca și accesa date personale, precum cookies, identificatori de dispozitiv sau alte tehnologii similare pe dispozitivul dumneavoastră și procesa astfel de date pentru a personaliza conținutul și reclamele, dar și pentru a oferi caracteristici de social media și pentru a analiza traficul.

  • Stocarea și/sau accesarea informațiilor pe dispozitivul dumneavoastră

    Cookies, identificatori de dispozitiv sau alte informații pot fi stocate sau accesate pe dispozitiv în scopurile indicate mai sus.

  • Reclame și conținut personalizat, evaluarea reclamelor și a conținutului, informații despre audiențe și dezvoltarea produselor

    Reclamele și conținutul pot fi personalizate pe baza unui profil. Pot fi adăugate date suplimentare pentru a personaliza mai bine reclamele și conținutul. Performanța reclamelor și conținutului poate fi măsurată. Pot fi obținute informații despre utilizatorii care au văzut reclamele și conținutul. Aceste date pot fi utilizate pentru a dezvolta sau îmbunătăți experiența utilizatorilor, sistemele și software-ul.

Dând clic pe ‘Sunt de acord’, permiteți utilizarea cookie-urilor menționate, a identificatorilor de dispozitiv, balizelor web sau altor tehnologii similare. Setările pot fi modificate din browser-ul dispozitivului dumneavoastră.

În anumite scopuri, interesele legitime pot prima asupra consimțământului. Puteți citi mai multe informații în acest sens în Politica privind Confidențialitatea Datelor și Cookie.